Location: Julian California
(33.0790°N, 116.6010°W)
Time: 15:36:45
(UTC-07:00)

Cosmos 2181 Rocket - Pass Details

Date: 12 July 2018
Orbit: 951 x 1016 km, 82.9° (Epoch: 17 July)

Event Time Altitude Azimuth Distance (km) Brightness Sun altitude
Exits shadow 22:16:12 51° 139° (SE) 1,195 4.0 -23.7°
Maximum altitude 22:17:26 61° 92° (E) 1,080 4.0 -23.8°
Drops below altitude 10° 22:23:28 10° 14° (NNE) 2,685 6.8 -24.6°
Sets 22:25:58 0° 11° (N) 3,630 7.6 -25.0°
